FW5376 Weather Reports


time (UTC)temp
F
wind
direction
speed
knots
gust
knots
rain 1hr
in
rain 24hr
in
rain mn
in
humidity
%
barometer
mb
20240614120021 48 180 0.9 2.6 0.00 0.00 0.00 63 1019.8
20240614115021 48 0.0 2.6 0.00 0.00 0.00 64 1019.8
20240614114021 47 0.0 0.0 0.00 0.00 0.00 63 1019.9
20240614113041 47 0.0 0.0 0.00 0.00 0.00 63 1019.8
20240614112022 48 0.0 0.0 0.00 0.00 0.00 63 1019.8
20240614111021 48 0.0 0.9 0.00 0.00 0.00 62 1019.8
20240614110021 48 0.0 1.7 0.00 0.00 0.00 62 1019.8
20240614105041 48 0.0 0.0 0.00 0.00 0.00 63 1019.7
20240614104021 48 0.0 0.0 0.00 0.00 0.00 62 1019.6
20240614103021 49 0.0 0.0 0.00 0.00 0.00 61 1019.8
20240614102021 49 0.0 2.6 0.00 0.00 0.00 61 1019.6
20240614101021 50 0.0 0.0 0.00 0.00 0.00 61 1019.6
20240614100021 50 0.0 0.0 0.00 0.00 0.00 61 1019.6
20240614095021 50 0.0 1.7 0.00 0.00 0.00 59 1019.6
20240614094021 50 203 0.9 2.6 0.00 0.00 0.00 60 1019.5
20240614093021 50 0.0 1.7 0.00 0.00 0.00 60 1019.3
20240614092021 51 225 0.9 2.6 0.00 0.00 0.00 58 1019.4
20240614091021 51 0.0 0.9 0.00 0.00 0.00 59 1019.4
20240614090021 51 0.0 0.9 0.00 0.00 0.00 60 1019.5
20240614085021 51 0.0 1.7 0.00 0.00 0.00 59 1019.3
20240614084021 52 0.0 1.7 0.00 0.00 0.00 58 1019.2
20240614083041 52 0.0 0.0 0.00 0.00 0.00 57 1019.0
20240614082021 53 0.0 0.9 0.00 0.00 0.00 56 1018.9
20240614081021 53 0.0 0.0 0.00 0.00 0.00 55 1019.0
20240614080021 54 0.0 0.9 0.00 0.00 0.00 54 1018.9
20240614075020 54 0.0 0.9 0.00 0.00 0.00 54 1018.9
20240614074021 55 225 0.9 2.6 0.00 0.00 0.00 54 1019.0
20240614073020 55 0.0 1.7 0.00 0.00 0.00 53 1019.0
20240614072041 56 0.0 0.9 0.00 0.00 0.00 52 1018.9
20240614071020 56 0.0 1.7 0.00 0.00 0.00 49 1018.7
20240614070021 56 0.0 1.7 0.00 0.00 0.00 48 1018.7
20240614065020 57 225 0.9 2.6 0.00 0.00 0.00 50 1018.6
20240614064020 57 0.0 0.9 0.00 0.00 0.00 51 1018.5
20240614063022 57 0.0 0.9 0.00 0.00 0.00 50 1018.4
20240614062040 58 0.0 1.7 0.00 0.00 0.00 50 1018.4
20240614061022 58 0.0 0.9 0.00 0.00 0.00 49 1017.9
20240614060022 59 0.0 0.0 0.00 0.00 0.00 47 1018.0
20240614055022 59 0.0 0.0 0.00 0.00 0.00 45 1017.8
20240614054042 60 0.0 0.0 0.00 0.00 0.00 43 1017.6
20240614053042 60 0.0 1.7 0.00 0.00 0.00 41 1017.7
20240614052022 61 0.0 1.7 0.00 0.00 0.00 40 1017.6
20240614051042 61 225 0.9 3.5 0.00 0.00 0.00 39 1017.5
20240614050022 62 0.0 1.7 0.00 0.00 0.00 38 1017.3
20240614045042 62 270 0.9 5.2 0.00 0.00 0.00 38 1017.4
20240614044022 63 0.0 1.7 0.00 0.00 0.00 40 1017.1
20240614043022 63 0.0 0.9 0.00 0.00 0.00 41 1016.8
20240614042022 64 0.0 0.9 0.00 0.00 0.00 42 1016.8
20240614041021 64 0.0 0.9 0.00 0.00 0.00 42 1016.7
20240614040022 64 0.0 2.6 0.00 0.00 0.00 40 1016.6
20240614035042 65 203 0.9 3.5 0.00 0.00 0.00 39 1016.6
20240614034021 66 0.0 1.7 0.00 0.00 0.00 38 1016.4
20240614033041 66 180 0.9 3.5 0.00 0.00 0.00 37 1016.4
20240614032022 67 0.0 1.7 0.00 0.00 0.00 37 1016.3
20240614031042 67 180 0.9 4.3 0.00 0.00 0.00 36 1016.4
20240614030021 67 180 0.9 3.5 0.00 0.00 0.00 37 1016.5
20240614025022 67 0.0 2.6 0.00 0.00 0.00 39 1016.5
20240614024022 67 203 0.9 2.6 0.00 0.00 0.00 40 1016.5
20240614023021 67 0.0 0.9 0.00 0.00 0.00 40 1016.4
20240614022021 67 180 0.9 3.5 0.00 0.00 0.00 39 1016.5
20240614021022 67 0.0 2.6 0.00 0.00 0.00 38 1016.5
20240614020021 67 0.0 0.0 0.00 0.00 0.00 38 1016.5
20240614015021 67 180 0.9 3.5 0.00 0.00 0.00 36 1016.5
20240614014021 67 0.0 2.6 0.00 0.00 0.00 34 1016.4
20240614013021 68 203 0.9 3.5 0.00 0.00 0.00 35 1016.2
20240614012021 68 203 1.7 4.3 0.00 0.00 0.00 35 1016.3
20240614011021 68 180 0.9 3.5 0.00 0.00 0.00 36 1016.4
20240614010022 68 270 0.9 2.6 0.00 0.00 0.00 36 1016.4
20240614005022 68 180 1.7 4.3 0.00 0.00 0.00 34 1016.5
20240614004021 69 203 0.9 2.6 0.00 0.00 0.00 35 1016.5
20240614003041 69 248 0.9 2.6 0.00 0.00 0.00 35 1016.4
20240614002021 68 270 0.9 6.1 0.00 0.00 0.00 33 1016.5
20240614001021 68 180 0.9 2.6 0.00 0.00 0.00 33 1016.5
20240614000021 68 0.0 2.6 0.00 0.00 0.00 33 1016.4
20240613235021 68 293 1.7 6.1 0.00 0.00 0.00 33 1016.6
20240613234021 68 315 0.9 3.5 0.00 0.00 0.00 32 1016.5
20240613233041 68 338 1.7 4.3 0.00 0.00 0.00 32 1016.4
20240613232021 67 23 0.9 3.5 0.00 0.00 0.00 31 1016.4
20240613231021 68 248 0.9 2.6 0.00 0.00 0.00 29 1016.6
20240613230021 67 315 2.6 4.3 0.00 0.00 0.00 30 1016.6
20240613225021 67 315 0.9 3.5 0.00 0.00 0.00 27 1016.7
20240613224022 67 23 1.7 4.3 0.00 0.00 0.00 28 1016.6
20240613223021 68 248 0.9 2.6 0.00 0.00 0.00 29 1016.6
20240613222021 67 248 1.7 4.3 0.00 0.00 0.00 28 1016.8
20240613221021 67 0 0.9 2.6 0.00 0.00 0.00 28 1017.0
20240613220021 67 293 0.9 3.5 0.00 0.00 0.00 29 1016.9
20240613215021 66 0 2.6 5.2 0.00 0.00 0.00 30 1016.8
20240613214021 67 270 0.9 2.6 0.00 0.00 0.00 31 1016.9
20240613213021 66 45 1.7 3.5 0.00 0.00 0.00 34 1017.0
20240613212021 67 270 0.9 2.6 0.00 0.00 0.00 34 1017.3
20240613211021 65 23 1.7 5.2 0.00 0.00 0.00 36 1017.2
20240613210021 64 0 2.6 4.3 0.00 0.00 0.00 36 1017.4
20240613205021 65 23 2.6 5.2 0.00 0.00 0.00 38 1017.4
20240613204041 65 270 0.9 3.5 0.00 0.00 0.00 37 1017.4
20240613203020 65 23 2.6 7.0 0.00 0.00 0.00 40 1017.3
20240613202040 65 23 1.7 4.3 0.00 0.00 0.00 38 1017.4
20240613201021 64 0 1.7 5.2 0.00 0.00 0.00 38 1017.4
20240613200020 65 270 1.7 5.2 0.00 0.00 0.00 39 1017.7
20240613195041 64 315 1.7 5.2 0.00 0.00 0.00 40 1017.9
20240613194020 64 248 1.7 6.1 0.00 0.00 0.00 40 1018.0
20240613193020 64 293 1.7 6.1 0.00 0.00 0.00 39 1018.0
20240613192021 64 270 1.7 5.2 0.00 0.00 0.00 40 1017.9
20240613191020 63 23 1.7 5.2 0.00 0.00 0.00 43 1018.1
20240613190021 64 293 1.7 4.3 0.00 0.00 0.00 42 1018.2
20240613185020 63 293 1.7 3.5 0.00 0.00 0.00 44 1018.1
20240613184020 62 23 2.6 7.8 0.00 0.00 0.00 46 1018.2
20240613183020 61 23 2.6 7.0 0.00 0.00 0.00 49 1018.2
20240613182021 62 45 1.7 6.1 0.00 0.00 0.00 49 1018.3
20240613181020 62 23 2.6 5.2 0.00 0.00 0.00 49 1018.4
20240613180020 60 0 2.6 4.3 0.00 0.00 0.00 51 1018.4
20240613175020 59 315 1.7 6.1 0.00 0.00 0.00 51 1018.4
20240613174040 60 23 1.7 5.2 0.00 0.00 0.00 51 1018.6
20240613173020 59 315 1.7 3.5 0.00 0.00 0.00 52 1018.6
20240613172020 58 270 0.9 3.5 0.00 0.00 0.00 51 1018.7
20240613171020 58 248 1.7 5.2 0.00 0.00 0.00 53 1018.8
20240613170020 58 270 1.7 4.3 0.00 0.00 0.00 53 1018.9
20240613165020 57 0.0 0.9 0.00 0.00 0.00 56 1019.0
20240613164020 56 338 1.7 3.5 0.00 0.00 0.00 56 1018.9
20240613163040 56 45 0.9 3.5 0.00 0.00 0.00 56 1018.9
20240613162020 55 338 1.7 3.5 0.00 0.00 0.00 58 1018.9
20240613161020 55 45 1.7 4.3 0.00 0.00 0.00 57 1019.0
20240613160020 55 45 1.7 3.5 0.00 0.00 0.00 56 1018.9
20240613155020 54 23 2.6 5.2 0.00 0.00 0.00 56 1019.0
20240613154040 55 23 1.7 3.5 0.00 0.00 0.00 57 1019.1
20240613153020 54 338 1.7 5.2 0.00 0.00 0.00 57 1019.0
20240613152022 54 0 4.3 8.7 0.00 0.00 0.00 56 1019.2
20240613151022 54 23 1.7 3.5 0.00 0.00 0.00 59 1019.4
20240613150022 53 0 2.6 4.3 0.00 0.00 0.00 59 1019.3
20240613145022 53 23 2.6 3.5 0.00 0.00 0.00 59 1019.2
20240613144022 52 45 2.6 5.2 0.00 0.00 0.00 59 1019.2
20240613143022 52 315 2.6 5.2 0.00 0.00 0.00 59 1019.2
20240613142021 52 0 2.6 6.1 0.00 0.00 0.00 60 1019.2
20240613141020 52 0.0 2.6 0.00 0.00 0.00 60 1019.1
20240613140022 51 45 0.9 3.5 0.00 0.00 0.00 61 1019.0
20240613135022 51 23 2.6 4.3 0.00 0.00 0.00 61 1019.2
20240613134021 51 23 1.7 4.3 0.00 0.00 0.00 62 1019.3
20240613133022 50 0 0.9 3.5 0.00 0.00 0.00 62 1019.2
20240613132022 50 23 1.7 4.3 0.00 0.00 0.00 62 1019.3
20240613131022 50 23 1.7 3.5 0.00 0.00 0.00 63 1019.1
20240613130022 50 23 1.7 4.3 0.00 0.00 0.00 63 1019.1
20240613125022 50 23 0.9 3.5 0.00 0.00 0.00 63 1019.1
20240613124020 50 23 1.7 3.5 0.00 0.00 0.00 62 1019.3
20240613123022 50 45 1.7 4.3 0.00 0.00 0.00 62 1019.1
20240613122022 50 0 2.6 5.2 0.00 0.00 0.00 62 1019.2
20240613121021 50 23 0.9 3.5 0.00 0.00 0.00 62 1019.2